sat.trackr.live / text

‹ back to catalog

STARLINK-35044

NORAD 65536 · 2025-200S

PAYLOAD ACTIVE UNKNOWN

§ Identity

Operator
Country
US
Launch date
2025-09-06
Launch site
AFWTR
Launch vehicle
Mass (kg)
RCS (m²)

Purposes: comms

External: N2YO · Heavens-Above · Gunter

§ Orbital elements

Epoch: 2026-05-25T03:17:43.168416Z

Period
95.64 min
Inclination
97.4501°
Eccentricity
0.0002313
Mean motion
15.05630269 rev/d
Perigee alt
548.0 km
Apogee alt
551.2 km
Semi-major
6,927.7 km
B*
-5.1875e-4
RAAN
214.7780°
Arg perigee
178.1716°
Mean anomaly
181.9520°
Rev number
4,063

§ Raw data

STARLINK-350441 65536U 25200S   26145.13730519 -.00007532  00000+0 -51875-3 0  99982 65536  97.4501 214.7780 0002313 178.1716 181.9520 15.05630269 40638

JSON: /api/v1/satellites/65536 · /tle

For live sub-satellite position, see the globe view (requires WebGL).

§ Visibility from observer

Set your observer location to see the next 7 days of passes ≥ 10°. The values pass through the URL so the page stays shareable.

No JS? Fill the form by hand. The geolocation button needs JavaScript.